Location: Anderson
(35.0873°N, 96.9845°W)
Time: 02:02:42
(UTC+00:00)

ACS3 Solar Sail - Visible Passes

Search period start: 12 June 2026 00:00
Search period end: 22 June 2026 00:00
Orbit: 871 x 959 km, 97.2° (Epoch: 11 June)

Date Brightness Start Highest point End Pass type
(mag) Time Alt. Az. Time Alt. Az. Time Alt. Az.
12 Jun 2.0 06:39:02 10° NNE 06:43:51 59° NE 06:43:51 59° NE visible
12 Jun 3.6 08:23:17 10° NNW 08:26:20 15° WNW 08:27:13 14° WNW visible
13 Jun 1.8 06:46:01 10° NNE 06:50:58 67° NNE 06:50:58 67° NNE visible
13 Jun 3.7 08:30:59 10° NW 08:33:15 12° WNW 08:34:20 12° WNW visible
14 Jun 1.8 06:53:00 10° N 06:58:05 71° N 06:58:05 71° N visible
14 Jun 3.9 08:39:17 10° NW 08:40:08 10° WNW 08:40:59 10° WNW visible
15 Jun 3.9 05:20:46 10° ENE 05:21:49 12° ENE 05:21:49 12° ENE visible
15 Jun 1.8 07:00:01 10° N 07:05:11 68° NNW 07:05:11 68° NNW visible
16 Jun 3.7 05:26:56 10° NE 05:28:54 14° ENE 05:28:54 14° ENE visible
16 Jun 1.9 07:07:01 10° N 07:12:16 61° NW 07:12:16 61° NW visible
17 Jun 3.6 05:33:20 10° NE 05:35:58 17° ENE 05:35:58 17° ENE visible
17 Jun 2.1 07:14:03 10° N 07:19:20 53° WNW 07:19:20 53° WNW visible
18 Jun 3.4 05:39:52 10° NE 05:43:01 20° ENE 05:43:01 20° ENE visible
18 Jun 2.3 07:21:05 10° N 07:26:22 46° WNW 07:26:22 46° WNW visible
19 Jun 3.2 05:46:30 10° NE 05:50:03 24° ENE 05:50:03 24° ENE visible
19 Jun 2.5 07:28:08 10° N 07:33:24 39° WNW 07:33:24 39° WNW visible
20 Jun 3.0 05:53:09 10° NE 05:57:04 28° ENE 05:57:04 28° ENE visible
20 Jun 2.7 07:35:12 10° N 07:40:20 34° WNW 07:40:25 34° WNW visible
21 Jun 2.8 05:59:51 10° NNE 06:04:04 33° ENE 06:04:04 33° ENE visible
21 Jun 2.9 07:42:16 10° NNW 07:47:11 29° WNW 07:47:25 29° WNW visible
